| time (UTC) | temp F | wind direction | speed MPH | gust MPH | rain 1hr in | rain 24hr in | rain mn in | humidity % | barometer mb |
| 20260905131548 | 53 | 277 | 1.0 | 5.0 | 0.00 | 0.00 | 0.00 | 73 | 1014.3 |
| 20260905130038 | 53 | 333 | 2.0 | 5.0 | 0.00 | 0.00 | 0.00 | 73 | 1013.7 |
| 20260905124541 | 53 | 315 | 2.0 | 4.0 | 0.00 | 0.00 | 0.00 | 74 | 1013.7 |
| 20260905123036 | 54 | 275 | 0.0 | 4.0 | 0.00 | 0.00 | 0.00 | 74 | 1014.6 |
| 20260905121533 | 53 | 269 | 2.0 | 6.0 | 0.00 | 0.00 | 0.00 | 74 | 1015.2 |
| 20260905120030 | 53 | 249 | 3.0 | 8.0 | 0.00 | 0.00 | 0.00 | 74 | 1014.7 |
| 20260905114537 | 52 | 292 | 2.0 | 5.0 | 0.00 | 0.00 | 0.00 | 74 | 1013.6 |
| 20260905113033 | 51 | 292 | 1.0 | 5.0 | 0.00 | 0.00 | 0.00 | 75 | 1013.9 |
| 20260905111525 | 51 | 277 | 3.0 | 7.0 | 0.00 | 0.00 | 0.00 | 74 | 1013.7 |
| 20260905110022 | 51 | 273 | 1.0 | 5.0 | 0.00 | 0.00 | 0.00 | 74 | 1013.5 |
| 20260905104522 | 49 | 315 | 2.0 | 4.0 | 0.00 | 0.00 | 0.00 | 75 | 1013.0 |
| 20260905103024 | 49 | 314 | 2.0 | 5.0 | 0.00 | 0.00 | 0.00 | 75 | 1012.9 |
| 20260905101525 | 48 | 311 | 1.0 | 4.0 | 0.00 | 0.00 | 0.00 | 75 | 1012.8 |
| 20260905100021 | 48 | 312 | 2.0 | 3.0 | 0.00 | 0.00 | 0.00 | 74 | 1012.7 |
| 20260905094513 | 49 | 301 | 2.0 | 4.0 | 0.00 | 0.00 | 0.00 | 74 | 1012.7 |
| 20260905093012 | 49 | 261 | 1.0 | 3.0 | 0.00 | 0.00 | 0.00 | 72 | 1012.7 |
| 20260905091510 | 51 | 298 | 1.0 | 3.0 | 0.00 | 0.00 | 0.00 | 71 | 1012.7 |
| 20260905090013 | 51 | 326 | 0.0 | 2.0 | 0.00 | 0.00 | 0.00 | 72 | 1012.5 |
| 20260905084507 | 49 | 313 | 2.0 | 5.0 | 0.00 | 0.00 | 0.00 | 74 | 1012.2 |
| 20260905083004 | 49 | 297 | 1.0 | 2.0 | 0.00 | 0.00 | 0.00 | 70 | 1012.3 |
| 20260905081500 | 51 | 292 | 0.0 | 4.0 | 0.00 | 0.00 | 0.00 | 69 | 1012.5 |
| 20260905080104 | 51 | 297 | 1.0 | 6.0 | 0.00 | 0.00 | 0.00 | 70 | 1012.9 |
| 20260905074559 | 51 | 295 | 1.0 | 3.0 | 0.00 | 0.00 | 0.00 | 70 | 1012.8 |
| 20260905073057 | 51 | 288 | 2.0 | 4.0 | 0.00 | 0.00 | 0.00 | 68 | 1012.6 |
| 20260905071557 | 52 | 265 | 1.0 | 3.0 | 0.00 | 0.00 | 0.00 | 68 | 1012.7 |
| 20260905070058 | 51 | 283 | 2.0 | 4.0 | 0.00 | 0.00 | 0.00 | 69 | 1012.2 |
| 20260905064552 | 51 | 298 | 2.0 | 3.0 | 0.00 | 0.00 | 0.00 | 68 | 1012.3 |
| 20260905063100 | 52 | 284 | 2.0 | 4.0 | 0.00 | 0.00 | 0.00 | 67 | 1012.4 |
| 20260905061605 | 52 | 281 | 1.0 | 6.0 | 0.00 | 0.00 | 0.00 | 64 | 1012.3 |
| 20260905060044 | 52 | 277 | 1.0 | 2.0 | 0.00 | 0.00 | 0.00 | 64 | 1011.9 |
| 20260905054543 | 51 | 313 | 1.0 | 4.0 | 0.00 | 0.00 | 0.00 | 63 | 1011.3 |
| 20260905053047 | 51 | 291 | 1.0 | 4.0 | 0.00 | 0.00 | 0.00 | 61 | 1011.5 |
| 20260905051539 | 53 | 281 | 1.0 | 4.0 | 0.00 | 0.00 | 0.00 | 59 | 1011.8 |
| 20260905050039 | 53 | 292 | 1.0 | 3.0 | 0.00 | 0.00 | 0.00 | 57 | 1011.6 |
| 20260905044540 | 54 | 316 | 0.0 | 3.0 | 0.00 | 0.00 | 0.00 | 55 | 1011.6 |
| 20260905043038 | 56 | 311 | 0.0 | 2.0 | 0.00 | 0.00 | 0.00 | 53 | 1011.9 |
| 20260905041537 | 58 | 71 | 0.0 | 1.0 | 0.00 | 0.00 | 0.00 | 50 | 1011.9 |
| 20260905040034 | 59 | 71 | 0.0 | 2.0 | 0.00 | 0.00 | 0.00 | 49 | 1011.1 |
| 20260905034533 | 59 | 71 | 2.0 | 3.0 | 0.00 | 0.00 | 0.00 | 48 | 1011.1 |
| 20260905033035 | 61 | 319 | 0.0 | 1.0 | 0.00 | 0.00 | 0.00 | 46 | 1011.0 |
| 20260905031532 | 63 | 319 | 1.0 | 4.0 | 0.00 | 0.00 | 0.00 | 43 | 1010.6 |
| 20260905030036 | 63 | 31 | 0.0 | 3.0 | 0.00 | 0.00 | 0.00 | 44 | 1010.5 |
| 20260905024532 | 64 | 355 | 1.0 | 2.0 | 0.00 | 0.00 | 0.00 | 42 | 1010.1 |
| 20260905023027 | 65 | 5 | 0.0 | 2.0 | 0.00 | 0.00 | 0.00 | 41 | 1010.2 |
| 20260905021524 | 66 | 5 | 1.0 | 6.0 | 0.00 | 0.00 | 0.00 | 39 | 1009.6 |
| 20260905020028 | 67 | 346 | 4.0 | 11.0 | 0.00 | 0.00 | 0.00 | 39 | 1008.9 |
| 20260905014517 | 68 | 346 | 8.0 | 13.0 | 0.00 | 0.00 | 0.00 | 37 | 1008.5 |
| 20260905013014 | 69 | 360 | 9.0 | 17.0 | 0.00 | 0.00 | 0.00 | 36 | 1007.8 |
| 20260905011514 | 70 | 321 | 6.0 | 17.0 | 0.00 | 0.00 | 0.00 | 35 | 1007.8 |
| 20260905010013 | 70 | 331 | 9.0 | 19.0 | 0.00 | 0.00 | 0.00 | 34 | 1007.9 |
| 20260905004513 | 71 | 360 | 8.0 | 16.0 | 0.00 | 0.00 | 0.00 | 34 | 1007.8 |
| 20260905003012 | 71 | 310 | 8.0 | 17.0 | 0.00 | 0.00 | 0.00 | 33 | 1008.0 |
| 20260905001510 | 72 | 344 | 9.0 | 21.0 | 0.00 | 0.00 | 0.00 | 33 | 1007.4 |
| 20260905000010 | 73 | 312 | 7.0 | 15.0 | 0.00 | 0.00 | 0.00 | 32 | 1007.3 |
| 20260904234509 | 74 | 320 | 9.0 | 18.0 | 0.00 | 0.00 | 0.00 | 31 | 1007.5 |
| 20260904233008 | 74 | 315 | 5.0 | 13.0 | 0.00 | 0.00 | 0.00 | 32 | 1007.4 |
| 20260904231507 | 75 | 11 | 6.0 | 15.0 | 0.00 | 0.00 | 0.00 | 32 | 1007.4 |
| 20260904230006 | 75 | 300 | 5.0 | 16.0 | 0.00 | 0.00 | 0.00 | 32 | 1007.5 |
| 20260904224505 | 75 | 320 | 6.0 | 13.0 | 0.00 | 0.00 | 0.00 | 32 | 1007.4 |
| 20260904223004 | 75 | 346 | 6.0 | 12.0 | 0.00 | 0.00 | 0.00 | 32 | 1007.2 |
| 20260904221613 | 75 | 343 | 6.0 | 15.0 | 0.00 | 0.00 | 0.00 | 33 | 1007.1 |
| 20260904214608 | 75 | 264 | 4.0 | 16.0 | 0.00 | 0.00 | 0.00 | 33 | 1006.5 |
| 20260904213056 | 76 | 351 | 6.0 | 14.0 | 0.00 | 0.00 | 0.00 | 33 | 1006.2 |
| 20260904211603 | 77 | 270 | 7.0 | 12.0 | 0.00 | 0.00 | 0.00 | 31 | 1006.0 |
| 20260904210055 | 77 | 241 | 5.0 | 10.0 | 0.00 | 0.00 | 0.00 | 31 | 1005.7 |
| 20260904204551 | 76 | 344 | 5.0 | 11.0 | 0.00 | 0.00 | 0.00 | 32 | 1005.5 |
| 20260904203051 | 77 | 304 | 6.0 | 12.0 | 0.00 | 0.00 | 0.00 | 30 | 1005.5 |
| 20260904201551 | 76 | 231 | 4.0 | 11.0 | 0.00 | 0.00 | 0.00 | 32 | 1005.3 |
| 20260904200059 | 75 | 303 | 7.0 | 14.0 | 0.00 | 0.00 | 0.00 | 32 | 1005.4 |
| 20260904194554 | 75 | 240 | 3.0 | 11.0 | 0.00 | 0.00 | 0.00 | 33 | 1005.1 |
| 20260904193052 | 77 | 240 | 6.0 | 11.0 | 0.00 | 0.00 | 0.00 | 31 | 1004.7 |
| 20260904191545 | 75 | 234 | 3.0 | 9.0 | 0.00 | 0.00 | 0.00 | 32 | 1004.6 |
| 20260904190042 | 74 | 302 | 3.0 | 10.0 | 0.00 | 0.00 | 0.00 | 35 | 1004.7 |
| 20260904184540 | 73 | 257 | 4.0 | 10.0 | 0.00 | 0.00 | 0.00 | 37 | 1004.7 |
| 20260904183037 | 71 | 244 | 5.0 | 10.0 | 0.00 | 0.00 | 0.00 | 37 | 1004.7 |
| 20260904181540 | 71 | 263 | 2.0 | 10.0 | 0.00 | 0.00 | 0.00 | 37 | 1004.6 |
| 20260904180033 | 70 | 252 | 4.0 | 7.0 | 0.00 | 0.00 | 0.00 | 37 | 1004.5 |
| 20260904174533 | 69 | 248 | 3.0 | 11.0 | 0.00 | 0.00 | 0.00 | 40 | 1004.5 |
| 20260904173033 | 68 | 253 | 4.0 | 11.0 | 0.00 | 0.00 | 0.00 | 40 | 1004.6 |
| 20260904171541 | 69 | 254 | 5.0 | 11.0 | 0.00 | 0.00 | 0.00 | 38 | 1004.3 |
| 20260904170029 | 69 | 207 | 4.0 | 8.0 | 0.00 | 0.00 | 0.00 | 42 | 1004.2 |
| 20260904164528 | 69 | 289 | 3.0 | 8.0 | 0.00 | 0.00 | 0.00 | 43 | 1003.9 |
| 20260904163029 | 67 | 311 | 1.0 | 5.0 | 0.00 | 0.00 | 0.00 | 43 | 1003.6 |
| 20260904161532 | 66 | 275 | 0.0 | 3.0 | 0.00 | 0.00 | 0.00 | 46 | 1003.6 |
| 20260904160019 | 65 | 19 | 1.0 | 5.0 | 0.00 | 0.00 | 0.00 | 46 | 1003.2 |
| 20260904154515 | 64 | 41 | 3.0 | 6.0 | 0.00 | 0.00 | 0.00 | 48 | 1002.8 |
| 20260904153017 | 62 | 76 | 2.0 | 8.0 | 0.00 | 0.00 | 0.00 | 49 | 1002.9 |
| 20260904151508 | 62 | 37 | 4.0 | 9.0 | 0.00 | 0.00 | 0.00 | 50 | 1002.7 |
| 20260904150015 | 61 | 29 | 6.0 | 8.0 | 0.00 | 0.00 | 0.00 | 51 | 1002.7 |
| 20260904144501 | 59 | 65 | 1.0 | 7.0 | 0.00 | 0.00 | 0.00 | 55 | 1002.8 |
| 20260904143100 | 56 | 331 | 1.0 | 4.0 | 0.00 | 0.00 | 0.00 | 65 | 1003.0 |
| 20260904141600 | 55 | 321 | 2.0 | 4.0 | 0.00 | 0.00 | 0.00 | 67 | 1003.2 |
| 20260904140058 | 55 | 326 | 2.0 | 6.0 | 0.00 | 0.00 | 0.00 | 66 | 1003.3 |
| 20260904134601 | 54 | 302 | 0.0 | 2.0 | 0.00 | 0.00 | 0.00 | 66 | 1003.1 |
| 20260904133056 | 54 | 312 | 1.0 | 4.0 | 0.00 | 0.00 | 0.00 | 62 | 1002.9 |